Location: Newark
(31.5350°N, 35.0986°E)
Time: 00:42:34
(UTC+00:00)

Explorer 7 - Pass Details

Date: 24 October 2019
Orbit: 485 x 680 km, 50.3° (Epoch: 13 November)

Event Time Altitude Azimuth Distance (km) Brightness Sun altitude
Rises 15:28:10 0° 293° (WNW) 2,645 11.4 -7.0°
Reaches altitude 10° 15:30:56 10° 272° (W) 1,789 11.0 -7.6°
Maximum altitude 15:33:35 17° 232° (SW) 1,438 9.9 -8.2°
Drops below altitude 10° 15:36:19 10° 191° (S) 1,860 9.8 -8.8°
Sets 15:39:17 0° 171° (S) 2,800 10.4 -9.4°
